Regional Weather Roundup
Issued by NWS Charleston, SC

Current Version | Previous Version | Text Only | Print | Product List | Glossary Off
Versions: 1 2 3 4 5 6 7 8 9 10 11 12 13 14 15 16 17 18 19 20 21 22 23 24 25 26 27 28 29 30 31 32 33 34 35 36 37 38 39 40 41 42 43 44 45 46 47 48 49 50

000
ASUS42 KCHS 261727
RWRCHS

REGIONAL WEATHER ROUNDUP
NATIONAL WEATHER SERVICE CHARLESTON SC
100 PM EDT FRI MAY 26 2017

NOTE: "FAIR" INDICATES FEW OR NO CLOUDS BELOW 12,000 FEET WITH NO
SIGNIFICANT WEATHER AND/OR OBSTRUCTIONS TO VISIBILITY.

NOT ALL STATIONS ARE QUALITY CONTROLLED. USE DATA WITH CAUTION...
ESPECIALLY DEWPOINT OBSERVATIONS.

SCZ027-030-031-034>040-042>050-261800-
...SOUTHEAST SOUTH CAROLINA...

CITY           SKY/WX    TMP DP  RH WIND       PRES   REMARKS
N CHARLESTON   MOSUNNY   80  53  39 W8        29.99F
WATERFRONT PRK   N/A     76  56  49 SW6       29.99S
JOHNS ISLAND   FAIR      82  57  42 W7G14     30.00F
PINOPOLIS        N/A     75  57  53 W8        29.92F
MONCKS CORNER  FAIR      79  50  36 W6        29.99S
SUMMERVILLE    FAIR      79  54  41 W7        30.00F
BEAUFORT MCAS  SUNNY     80  55  42 NW9       30.02F
BEAUFORT ARPT  FAIR      79  55  44 W10       30.01F
HILTON HEAD IS SUNNY     77  54  44 W9        30.04S
WALTERBORO     SUNNY     79  54  41 W10G17    30.01F
ALLENDALE      FAIR      79  54  41 SW8       30.00F

...SOUTHERN MIDLANDS AND PEE DEE...

CITY           SKY/WX    TMP DP  RH WIND       PRES   REMARKS
GEORGETOWN     FAIR      79  54  41 SW12      29.98F
KINGSTREE      FAIR      79  52  38 W12G18    29.97F
ORANGEBURG     SUNNY     79  54  41 W10       30.00S
BARNWELL       FAIR      81  55  41 W10       30.01F
AIKEN          FAIR      79  52  38 SW16      30.05S
MANNING        FAIR      79  57  47 SW8       29.99S
COLUMBIA       MOSUNNY   81  53  37 W12       29.99S
SUMTER         SUNNY     79  53  40 SW14      29.96S
FLORENCE       SUNNY     79  51  37 W12       29.96F
MYRTLE BEACH   SUNNY     81  54  39 W9G20     29.97F
N MYRTLE BEACH SUNNY     80  53  39 W9        29.94F

$$

GAZ063-065-086>088-099>101-113>116-118-119-134>141-150-261800-
...SOUTHEAST GEORGIA...

CITY           SKY/WX    TMP DP  RH WIND       PRES   REMARKS
SAVANNAH ARPT  MOSUNNY   81  50  33 W8        30.03F
HUNTER AAF     MOSUNNY   80  60  50 W7        30.01F
FORT STEWART   MOSUNNY   79  51  37 W10       30.02S
STATESBORO     SUNNY     80  54  41 W9        30.03F
SYLVANIA       SUNNY     80  57  45 NW7       30.04S
CLAXTON        FAIR      78  56  46 W6        30.04F

...CSRA...CENTRAL AND FAR SOUTHEAST GEORGIA...

CITY           SKY/WX    TMP DP  RH WIND       PRES   REMARKS
THOMSON        SUNNY     78  51  38 N10G18    30.08F
AUGUSTA-BUSH   SUNNY     83  54  36 W8        30.01F
AUGUSTA-DANIEL SUNNY     79  49  34 VRB7      30.03S
SWAINSBORO     FAIR      79  54  41 W7G18     30.06S
VIDALIA        SUNNY     79  54  41 W9        30.05F
EASTMAN        FAIR      81  38  21 W6        30.09S
HAZLEHURST     FAIR      81  54  38 N6        30.05F
ALMA           SUNNY     81  53  37 MISG      30.06S
WAYCROSS       SUNNY     84  55  36 N3        30.05F
JESUP          FAIR      81  46  30 NW3G17    30.05S
BAXLEY         FAIR      81  55  41 NW10G16   30.05F
BRUNSWICK      SUNNY     81  55  41 SW10G17   30.05S
SAINT SIMONS   SUNNY     80  52  37 SW7       30.04F

$$

SCZ027-028-034-036>038-045-046-048>050-GAZ119-141-261800-
...LAKE AND SUPPLEMENTAL COASTAL OBSERVATIONS...

STATION/POSITION TIME  TEMP    WIND        PRES    WAVE   SWELL
                       AIR SEA DIR/SP/G            HT/PER HT/PER/DIR
                 (UTC) (F)     (DEG/KT/KT) (MB)    (FT/S) (FT/S/D)
WINYAH BAY       1645   77     280/  9     1015.0S
LAKE MURRAY      1720   75     270/ 10/ 14 1014.6
ACE BASIN NERRS  1645   78     240/  3     1017.0S
FORT PULASKI     1700   76     300/  6/  9 1017.1
SAPELO ISLAND    1700   79     250/  6     1017.0

$$

ANZ835-935-AMZ111-154-330-350-352-354-370-450-454-472-261800-
...C-MAN AND BUOY OBSERVATIONS...

STATION/POSITION TIME  TEMP    WIND        PRES    WAVE   SWELL
                       AIR SEA DIR/SP/G            HT/PER HT/PER/DIR
                 (UTC) (F)     (DEG/KT/KT) (MB)    (FT/S) (FT/S/D)
BUOY 41004       1710   72 74  260/ 12/ 16 1016.0
BUOY 41008       1650   74 78  250/  6/  8 1017.6R   1/ 8   2/ 90/ 8
FOLLY BEACH CMAN 1700   77     200/  6/  7 1016.6F
CAPERS NEARSHORE 1708   80 76  240/ 12/ 16 1015.6F
FRIPP NEARSHORE  1708   75 77  240/  8/ 12 1016.8F


STATION/POSITION TIME  TEMP    WIND        PRES    WAVE   SWELL
                       AIR SEA DIR/SP/G            HT/PER HT/PER/DIR
                 (UTC) (F)     (DEG/KT/KT) (MB)    (FT/S) (FT/S/D)
5E ST. MARYS GA  1700      80                N/A     1/ 8
FRYING PAN BUOY  1710   72 75  250/ 14/ 16 1014.6
BUOY 41025       1650   74 79  280/ 19/ 23 1011.8S   8/ 8
CAPE LOOKOUT NC  1700   76     250/ 14/ 18 1012.4F
BUOY 41002       1650   76 77  280/ 12/ 16 1016.2F   6/ 8   5/260/ 8
BUOY 41010       1710   78 79  270/  6/ 10 1017.8
ST AUGUSTINE FL  1700   76 77   70/  8/  8 1018.9F


$$



USA.gov is the U.S. government's official web portal to all federal, state and local government web resources and services.